Location: Newark
(33.6439°N, 114.9881°W)
Time: 23:14:24
(UTC+00:00)

A-11 Canister half - Pass Details

Date: 31 August 2019
Orbit: 1527 x 1682 km, 47.3° (Epoch: 19 September)

Event Time Altitude Azimuth Distance (km) Brightness Sun altitude
Rises 21:30:42 0° 301° (WNW) 4,890 11.8 54.2°
Reaches altitude 10° 21:34:03 10° 308° (NW) 3,918 11.4 53.7°
Maximum altitude 21:43:43 47° 20° (NNE) 2,112 10.0 52.1°
Drops below altitude 10° 21:53:24 10° 93° (E) 3,935 10.9 50.4°
Sets 21:56:45 0° 99° (E) 4,914 11.3 49.8°
